TimePDT,TemperatureF,Dew PointF,Humidity,Sea Level PressureIn,VisibilityMPH,Wind Direction,Wind SpeedMPH,Gust SpeedMPH,PrecipitationIn,Events,Conditions,WindDirDegrees,DateUTC
12:52 AM,43.0,21.9,43,30.03,-9999.0,NE,3.5,-,N/A,,Unknown,50,2012-10-30 07:52:00
1:52 AM,43.0,23.0,45,30.03,-9999.0,NE,5.8,-,N/A,,Unknown,50,2012-10-30 08:52:00
2:52 AM,44.1,24.1,45,30.01,-9999.0,NE,6.9,-,N/A,,Unknown,50,2012-10-30 09:52:00
3:52 AM,44.1,23.0,43,30.00,-9999.0,NE,6.9,-,N/A,,Unknown,40,2012-10-30 10:52:00
4:52 AM,43.0,23.0,45,30.01,-9999.0,NE,6.9,-,N/A,,Unknown,50,2012-10-30 11:52:00
5:52 AM,42.1,21.9,45,30.02,-9999.0,NE,6.9,-,N/A,,Unknown,50,2012-10-30 12:52:00
6:52 AM,42.1,21.9,45,30.04,-9999.0,NE,5.8,-,N/A,,Unknown,50,2012-10-30 13:52:00
7:52 AM,46.9,21.9,37,30.05,-9999.0,NE,5.8,-,N/A,,Unknown,50,2012-10-30 14:52:00
8:52 AM,61.0,26.1,26,30.03,-9999.0,Calm,Calm,-,N/A,,Unknown,0,2012-10-30 15:52:00
9:52 AM,73.9,25.0,16,30.01,-9999.0,Calm,Calm,-,N/A,,Unknown,0,2012-10-30 16:52:00
10:52 AM,82.0,21.0,10,29.99,-9999.0,SSW,4.6,-,N/A,,Unknown,200,2012-10-30 17:52:00
11:52 AM,82.9,17.1,9,29.97,-9999.0,West,5.8,-,N/A,,Unknown,260,2012-10-30 18:52:00
12:52 PM,82.9,19.9,10,29.95,-9999.0,SSW,13.8,-,N/A,,Unknown,210,2012-10-30 19:52:00
1:52 PM,84.0,21.9,10,29.93,-9999.0,WSW,13.8,-,N/A,,Unknown,240,2012-10-30 20:52:00
2:52 PM,82.9,21.9,11,29.91,-9999.0,WSW,11.5,-,N/A,,Unknown,250,2012-10-30 21:52:00
3:52 PM,80.1,30.0,16,29.92,-9999.0,SW,13.8,-,N/A,,Unknown,220,2012-10-30 22:52:00
4:52 PM,77.0,30.9,19,29.94,-9999.0,SW,13.8,-,N/A,,Unknown,220,2012-10-30 23:52:00
5:52 PM,69.1,35.1,29,29.95,-9999.0,SSW,8.1,-,N/A,,Unknown,210,2012-10-31 00:52:00
6:52 PM,61.0,35.1,38,29.98,-9999.0,Calm,Calm,-,N/A,,Unknown,0,2012-10-31 01:52:00
7:52 PM,57.0,33.1,40,29.99,-9999.0,NE,5.8,-,N/A,,Unknown,50,2012-10-31 02:52:00
8:52 PM,52.0,32.0,47,29.98,-9999.0,ENE,6.9,-,N/A,,Unknown,60,2012-10-31 03:52:00
9:52 PM,51.1,32.0,48,29.98,-9999.0,NE,4.6,-,N/A,,Unknown,40,2012-10-31 04:52:00
10:52 PM,50.0,32.0,50,29.97,-9999.0,NE,4.6,-,N/A,,Unknown,40,2012-10-31 05:52:00
11:52 PM,46.0,30.0,54,29.97,-9999.0,NE,6.9,-,N/A,,Unknown,50,2012-10-31 06:52:00